Temp
-4 -4 -3 -4 -6 -7 -6 -6 -7 -6 -5 -6 -7 -7 -7 -6 -6 -6 -6 -6 -6 -7 -6 -6 -6 -6 -6 -6 -6 -6 -6 -6 -6 -6 -6 -6 -5 -5 -5 -6 -6 -6 -7 -7
-4 -4 -4 -4 -7 -7 -6 -6 -6 -5 -7 -5 -6 -6 -7 -6 -7 -6 -6 -6 -6 -6 -7 -6 -7 -6 -6 -6 -6 -6 -6 -6 -6 -6 -6 -6 -5 -5 -6 -6 -6 -6 -6 -7
-4 -4 -4 -6 -7 -7 -6 -6 -6 -7 -7 -5 -6 -6 -6 -6 -5 -6 -6 -6 -6 -7 -7 -6 -7 -6 -6 -6 -6 -6 -6 -5 -6 -6 -6 -6 -6 -6 -6 -7 -6 -6 -6 -6
-5 -5 -7 -7 -6 -7 -6 -6 -6 -6 -6 -6 -6 -6 -5 -6 -6 -7 -6 -6 -6 -6 -6 -6 -6 -6 -6 -6 -6 -6 -5 -6 -6 -6 -6 -6 -6 -7 -7 -7 -7 -6 -5 -6
-5 -5 -5 -7 -7 -7 -7 -6 -6 -6 -6 -6 -6 -6 -6 -6 -7 -6 -7 -7 -7 -6 -6 -7 -6 -7 -6 -6 -6 -6 -6 -6 -6 -6 -6 -6 -6 -6 -7 -6 -6 -6 -5 -6
-5 -7 -5 -5 -7 -7 -7 -7 -7 -7 -6 -6 -5 -5 -5 -6 -6 -6 -7 -7 -7 -7 -7 -7 -6 -6 -6 -6 -6 -6 -6 -6 -6 -6 -6 -6 -5 -6 -6 -8 -7 -6 -5 -7
-5 -5 -5 -5 -5 -5 -6 -7 -7 -6 -6 -5 -5 -5 -5 -5 -6 -6 -7 -7 -7 -7 -7 -7 -7 -6 -6 -6 -6 -6 -6 -6 -6 -6 -6 -5 -5 -5 -6 -6 -7 -7 -6 -7
-6 -6 -6 -5 -5 -7 -7 -7 -6 -6 -5 -5 -5 -6 -6 -6 -6 -5 -5 -6 -7 -7 -7 -7 -7 -6 -7 -7 -7 -7 -7 -6 -6 -6 -6 -6 -6 -5 -5 -6 -6 -6 -7 -7
-6 -7 -7 -7 -6 -6 -7 -7 -6 -6 -5 -5 -5 -5 -6 -6 -7 -5 -4 -6 -7 -7 -7 -7 -6 -7 -7 -7 -7 -7 -7 -7 -7 -7 -6 -6 -6 -6 -6 -6 -6 -7 -7 -7
-7 -7 -7 -8 -7 -6 -7 -6 -6 -6 -5 -5 -5 -6 -6 -5 -6 -5 -6 -7 -7 -7 -7 -7 -7 -7 -7 -7 -7 -7 -8 -8 -7 -7 -7 -7 -7 -7 -7 -7 -7 -7 -7 -7
-7 -7 -7 -7 -6 -7 -7 -7 -6 -5 -5 -5 -5 -6 -7 -6 -6 -5 -6 -8 -6 -6 -7 -7 -8 -8 -8 -7 -7 -7 -8 -8 -8 -8 -7 -7 -7 -7 -7 -7 -7 -7 -7 -7
-7 -7 -7 -7 -7 -7 -7 -7 -6 -6 -6 -5 -5 -6 -7 -6 -6 -6 -6 -5 -7 -8 -8 -8 -7 -8 -8 -8 -7 -7 -7 -8 -8 -8 -8 -7 -7 -7 -7 -7 -7 -7 -7 -7
-7 -7 -7 -7 -7 -7 -7 -7 -6 -6 -5 -5 -5 -7 -6 -6 -7 -6 -6 -7 -8 -8 -8 -8 -8 -8 -8 -8 -7 -7 -6 -7 -7 -8 -8 -8 -8 -7 -7 -7 -7 -7 -7 -7
-8 -8 -7 -7 -6 -7 -7 -7 -6 -6 -6 -5 -6 -6 -6 -6 -6 -6 -6 -7 -8 -8 -8 -8 -8 -8 -8 -7 -7 -8 -7 -7 -7 -7 -8 -8 -8 -8 -8 -8 -8 -8 -7 -8
-7 -8 -8 -7 -7 -7 -7 -7 -7 -6 -6 -6 -6 -7 -7 -8 -7 -7 -7 -7 -7 -8 -8 -8 -8 -8 -8 -8 -7 -8 -8 -7 -7 -7 -7 -7 -8 -8 -8 -8 -8 -7 -7 -7
-8 -8 -9 -9 -7 -7 -7 -7 -6 -6 -6 -6 -7 -8 -6 -6 -8 -8 -8 -8 -7 -7 -8 -8 -8 -8 -8 -8 -8 -7 -7 -7 -7 -7 -7 -7 -8 -8 -8 -8 -7 -7 -7 -7
-7 -8 -7 -7 -7 -7 -7 -7 -7 -7 -7 -7 -7 -7 -7 -6 -8 -8 -8 -8 -8 -7 -8 -8 -8 -8 -8 -8 -8 -8 -8 -8 -7 -8 -7 -8 -8 -8 -8 -7 -7 -6 -7 -7
-7 -8 -8 -7 -7 -7 -7 -7 -7 -7 -7 -7 -7 -7 -6 -7 -8 -8 -8 -8 -8 -7 -7 -7 -7 -7 -7 -8 -8 -8 -8 -8 -8 -8 -8 -8 -7 -8 -8 -7 -7 -8 -7 -8
-8 -7 -7 -8 -8 -8 -8 -7 -7 -7 -8 -8 -8 -8 -7 -7 -7 -8 -6 -7 -7 -7 -7 -7 -7 -7 -7 -7 -7 -7 -8 -8 -8 -8 -8 -8 -8 -8 -8 -8 -8 -8 -8 -8
-8 -8 -8 -8 -8 -8 -7 -8 -7 -8 -8 -8 -8 -9 -7 -8 -9 -9 -8 -7 -6 -7 -7 -7 -6 -7 -6 -7 -7 -7 -7 -7 -7 -7 -8 -8 -8 -8 -8 -9 -9 -9 -8 -8
-8 -8 -8 -8 -8 -8 -7 -8 -7 -8 -8 -8 -9 -8 -9 -9 -9 -8 -7 -6 -6 -6 -6 -6 -6 -6 -6 -6 -6 -6 -7 -7 -7 -7 -7 -7 -7 -7 -8 -8 -8 -9 -8 -8
-8 -8 -8 -8 -8 -8 -8 -8 -8 -7 -8 -8 -8 -8 -8 -7 -7 -7 -6 -7 -7 -6 -7 -7 -6 -6 -6 -6 -5 -6 -6 -6 -6 -6 -6 -7 -7 -7 -7 -7 -8 -8 -8 -8
-7 -8 -8 -9 -8 -7 -7 -8 -8 -7 -8 -9 -8 -8 -8 -8 -7 -6 -7 -7 -7 -7 -7 -7 -6 -6 -6 -6 -5 -6 -6 -6 -6 -6 -6 -6 -6 -6 -7 -7 -7 -7 -8 -8
-7 -8 -8 -8 -8 -7 -7 -7 -8 -8 -8 -7 -8 -8 -7 -7 -8 -7 -7 -7 -6 -6 -6 -6 -6 -6 -6 -6 -6 -6 -6 -6 -6 -6 -6 -6 -6 -6 -6 -7 -7 -7 -8 -9
-7 -6 -7 -7 -8 -8 -7 -7 -7 -7 -8 -8 -7 -7 -7 -7 -7 -7 -7 -7 -6 -6 -6 -6 -6 -6 -6 -6 -6 -6 -6 -6 -6 -6 -6 -6 -6 -6 -6 -7 -7 -7 -8 -9
-8 -8 -7 -7 -7 -7 -7 -7 -8 -8 -7 -7 -7 -7 -7 -7 -7 -8 -7 -7 -7 -7 -7 -7 -7 -7 -7 -7 -7 -7 -7 -7 -6 -7 -7 -7 -7 -7 -7 -7 -7 -7 -8 -8
Height
5923 5925 5927 5927 5930 5934 5937 5926 5921 5935 5936 5937 5939 5937 5928 5934 5934 5932 5932 5931 5932 5931 5930 5927 5927 5927 5926 5925 5925 5924 5923 5922 5924 5925 5926 5927 5928 5928 5929 5931 5930 5931 5931 5930
5921 5924 5924 5925 5929 5933 5938 5942 5941 5928 5929 5936 5941 5943 5939 5934 5937 5933 5929 5931 5931 5930 5929 5929 5927 5926 5926 5926 5926 5926 5924 5923 5923 5925 5927 5927 5928 5929 5930 5930 5929 5930 5929 5928
5918 5922 5922 5924 5928 5932 5936 5940 5941 5929 5924 5934 5937 5943 5938 5929 5930 5934 5930 5928 5929 5930 5929 5930 5928 5926 5926 5927 5926 5926 5925 5924 5924 5925 5926 5927 5928 5929 5927 5925 5928 5929 5928 5927
5914 5918 5923 5923 5924 5930 5934 5938 5938 5934 5936 5937 5940 5942 5940 5929 5929 5931 5931 5932 5928 5929 5929 5930 5929 5927 5927 5927 5927 5926 5926 5925 5924 5925 5926 5927 5929 5924 5927 5926 5925 5925 5927 5925
5912 5914 5916 5920 5924 5926 5930 5933 5936 5937 5928 5935 5940 5940 5935 5933 5930 5926 5931 5929 5931 5929 5930 5930 5928 5928 5927 5927 5927 5927 5927 5926 5925 5925 5925 5926 5927 5923 5925 5912 5925 5923 5923 5922
5908 5911 5912 5916 5918 5920 5924 5926 5930 5932 5934 5935 5937 5938 5937 5933 5936 5932 5932 5931 5932 5931 5930 5929 5928 5928 5927 5927 5927 5927 5928 5927 5927 5926 5925 5924 5925 5924 5922 5922 5918 5923 5921 5920
5904 5906 5908 5911 5913 5915 5918 5923 5928 5933 5933 5931 5933 5939 5936 5931 5935 5930 5930 5931 5931 5930 5929 5929 5928 5927 5927 5926 5926 5926 5928 5928 5928 5927 5926 5925 5924 5925 5923 5921 5918 5919 5918 5918
5901 5903 5905 5907 5909 5914 5916 5921 5927 5930 5930 5931 5926 5929 5926 5932 5931 5925 5926 5925 5927 5928 5928 5927 5926 5925 5925 5925 5924 5925 5926 5928 5928 5927 5926 5926 5925 5924 5923 5921 5920 5918 5918 5916
5905 5905 5904 5903 5905 5910 5917 5916 5923 5928 5929 5931 5927 5928 5925 5926 5925 5923 5920 5919 5919 5923 5924 5924 5924 5923 5923 5923 5923 5922 5923 5925 5926 5926 5926 5925 5925 5923 5922 5921 5918 5917 5917 5918
5898 5903 5903 5900 5902 5906 5909 5919 5921 5922 5926 5928 5927 5924 5921 5921 5923 5922 5911 5910 5919 5915 5920 5922 5920 5922 5922 5922 5921 5920 5920 5921 5924 5924 5923 5924 5923 5923 5922 5920 5918 5918 5917 5917
5893 5899 5901 5900 5901 5903 5907 5911 5917 5923 5925 5926 5926 5922 5919 5919 5921 5922 5918 5913 5897 5909 5917 5920 5921 5920 5919 5919 5920 5919 5918 5919 5921 5922 5922 5922 5921 5921 5921 5920 5920 5919 5919 5917
5890 5898 5901 5900 5899 5899 5906 5911 5916 5919 5922 5923 5920 5919 5916 5918 5918 5916 5916 5915 5913 5914 5916 5918 5920 5921 5921 5920 5918 5918 5918 5918 5920 5921 5921 5921 5920 5920 5920 5920 5919 5918 5918 5917
5888 5894 5898 5899 5899 5899 5904 5910 5914 5918 5921 5920 5919 5912 5911 5913 5912 5913 5912 5915 5916 5918 5918 5918 5919 5919 5920 5919 5918 5917 5917 5917 5918 5919 5919 5919 5919 5918 5919 5918 5918 5917 5916 5915
5886 5889 5890 5895 5899 5902 5902 5906 5910 5914 5918 5918 5916 5909 5906 5905 5907 5908 5909 5911 5913 5914 5915 5915 5916 5917 5917 5917 5916 5915 5914 5913 5914 5915 5915 5916 5916 5916 5915 5913 5913 5914 5913 5913
5887 5891 5891 5890 5893 5901 5901 5905 5907 5908 5912 5912 5909 5907 5906 5905 5903 5907 5905 5906 5908 5909 5910 5911 5911 5912 5913 5913 5914 5913 5911 5910 5909 5910 5909 5909 5910 5910 5909 5909 5908 5910 5909 5909
5885 5889 5889 5890 5896 5899 5901 5903 5907 5907 5908 5911 5904 5897 5860 5894 5904 5905 5906 5904 5904 5905 5906 5906 5906 5906 5906 5907 5907 5909 5909 5908 5907 5907 5906 5906 5909 5909 5909 5908 5908 5907 5907 5905
5885 5891 5894 5897 5897 5898 5900 5902 5904 5905 5907 5909 5901 5898 5895 5890 5894 5902 5902 5902 5901 5900 5901 5901 5901 5900 5900 5901 5901 5901 5902 5903 5903 5903 5903 5903 5904 5905 5905 5906 5907 5907 5904 5903
5884 5888 5892 5892 5893 5895 5899 5895 5899 5903 5905 5902 5900 5893 5881 5852 5884 5895 5897 5898 5897 5895 5896 5895 5895 5894 5895 5895 5895 5895 5895 5895 5897 5899 5901 5901 5901 5900 5899 5901 5899 5898 5897 5897
5887 5888 5891 5888 5889 5884 5891 5892 5896 5895 5900 5897 5895 5891 5883 5878 5883 5887 5889 5893 5891 5891 5892 5891 5890 5889 5889 5889 5888 5889 5888 5889 5889 5889 5891 5893 5894 5894 5895 5895 5893 5893 5891 5888
5882 5883 5888 5886 5888 5881 5883 5886 5888 5893 5896 5896 5894 5893 5888 5890 5891 5886 5885 5885 5887 5887 5887 5887 5886 5885 5884 5885 5883 5883 5882 5881 5883 5883 5882 5883 5883 5882 5883 5883 5883 5884 5882 5881
5874 5876 5881 5886 5883 5879 5881 5880 5884 5888 5892 5890 5892 5891 5889 5886 5883 5883 5882 5881 5881 5882 5881 5881 5880 5879 5879 5879 5878 5878 5877 5876 5875 5874 5877 5876 5874 5874 5874 5874 5873 5872 5872 5870
5866 5873 5876 5877 5879 5871 5870 5875 5880 5881 5882 5884 5886 5886 5882 5879 5879 5879 5878 5877 5876 5876 5874 5873 5873 5873 5873 5872 5873 5874 5871 5871 5869 5868 5869 5869 5867 5866 5865 5864 5864 5863 5859 5858
5866 5866 5864 5866 5868 5869 5871 5870 5873 5877 5880 5880 5879 5880 5881 5879 5874 5873 5874 5871 5870 5869 5868 5868 5867 5866 5865 5866 5866 5866 5864 5863 5862 5861 5860 5860 5860 5859 5855 5854 5852 5849 5850 5849
5859 5862 5862 5864 5859 5864 5865 5866 5869 5870 5871 5870 5872 5871 5872 5873 5870 5867 5866 5864 5863 5864 5863 5862 5861 5860 5859 5858 5857 5857 5856 5854 5853 5852 5850 5848 5849 5847 5845 5844 5842 5840 5838 5837
5851 5857 5860 5860 5858 5856 5858 5861 5862 5864 5865 5865 5865 5865 5865 5866 5863 5861 5859 5858 5858 5858 5858 5856 5855 5854 5852 5850 5849 5848 5848 5845 5844 5842 5840 5838 5837 5835 5833 5832 5831 5829 5824 5824
5850 5850 5852 5848 5853 5855 5857 5859 5858 5857 5858 5858 5858 5858 5857 5857 5856 5854 5852 5851 5851 5852 5850 5849 5846 5845 5844 5843 5842 5840 5839 5836 5835 5833 5831 5828 5826 5823 5822 5820 5820 5818 5814 5813
Wind_Speed
14 14 9 8 7 14 16 31 20 10 11 7 5 12 21 15 14 17 17 18 19 20 16 13 10 11 11 10 10 7 4 4 5 4 3 4 4 4 5 4 1 3 1 9
18 12 9 8 13 13 13 10 15 12 12 4 6 7 14 14 13 21 25 20 21 17 19 15 14 11 10 9 7 8 10 6 6 5 5 4 4 4 4 3 1 2 5 8
19 13 11 14 16 16 13 15 9 27 23 10 8 11 20 21 16 16 18 23 20 14 16 14 16 14 12 9 6 7 7 8 9 7 5 4 4 4 2 3 1 5 9 11
21 15 17 19 19 16 15 18 13 22 19 3 10 8 16 20 20 12 14 19 21 11 10 12 16 17 13 12 9 7 6 5 5 4 2 2 3 4 5 1 1 4 8 15
17 17 22 22 17 17 19 21 13 14 17 9 9 14 4 9 3 12 16 14 8 12 14 15 14 13 13 10 10 6 6 7 7 5 1 4 4 9 8 7 5 6 12 15
20 17 21 19 20 20 23 19 15 16 12 10 6 13 11 3 14 11 2 11 9 10 12 11 14 11 12 9 7 6 4 5 6 6 3 1 7 8 9 8 4 7 11 13
18 22 22 21 22 21 19 15 13 14 12 10 14 14 19 11 6 17 24 22 5 9 9 13 11 9 8 8 7 5 4 2 4 4 4 5 7 6 2 6 6 8 9 12
11 18 17 17 20 15 16 16 15 15 11 11 21 16 23 6 15 30 29 15 6 10 12 14 11 10 8 9 8 7 6 3 0 3 2 2 4 5 3 4 6 6 6 16
9 16 14 19 17 20 15 21 18 18 17 14 22 20 3 12 10 19 23 10 9 8 9 14 8 7 9 12 8 9 7 7 3 1 3 4 1 1 2 5 8 3 7 13
16 10 15 18 18 21 23 9 12 16 13 12 7 10 17 23 13 20 20 11 9 7 9 7 8 3 7 11 12 11 4 11 6 4 6 5 4 5 4 5 7 4 8 13
20 11 17 16 15 16 26 23 17 9 10 9 12 11 17 21 21 17 21 14 5 5 4 4 5 9 12 12 11 9 3 11 10 6 5 7 7 8 9 6 9 10 12 15
15 7 15 12 15 19 14 13 12 15 14 10 14 15 16 18 16 20 20 15 13 9 16 9 7 1 7 11 11 8 2 8 11 9 4 6 8 7 6 7 10 13 12 15
23 10 6 11 10 15 15 14 15 14 8 17 13 19 26 24 20 19 23 11 13 15 14 13 11 10 7 6 6 11 5 9 11 11 8 6 9 11 8 13 11 12 12 16
19 10 19 8 13 11 18 19 18 17 12 15 9 25 30 30 25 23 23 17 18 18 16 15 15 14 14 11 8 7 10 12 16 16 13 10 10 10 12 12 13 14 17 17
20 9 9 16 16 12 10 10 15 20 15 13 27 21 24 21 23 18 18 20 18 19 19 21 21 20 18 16 14 10 10 14 18 22 23 20 17 17 18 14 15 15 18 17
20 5 6 10 9 13 15 15 11 18 20 8 14 24 48 19 15 19 20 20 19 21 22 24 24 23 23 22 20 16 14 13 16 19 23 21 17 17 17 19 14 13 18 17
18 6 7 6 7 8 10 13 15 17 19 15 22 25 33 36 17 18 21 20 21 22 24 25 23 23 24 24 24 25 20 16 17 19 23 22 21 16 21 20 16 19 17 19
23 13 6 13 17 13 11 18 18 10 14 19 24 35 27 10 8 22 28 22 23 25 23 22 21 22 21 22 23 24 25 27 23 21 25 24 28 24 20 22 32 30 24 22
11 10 7 22 14 11 7 16 16 26 12 25 23 28 34 26 15 26 25 20 23 22 20 21 22 23 22 21 22 22 24 25 28 29 25 24 25 26 28 28 29 27 30 23
18 12 16 12 15 12 22 17 17 10 9 17 14 14 10 8 18 26 26 23 13 17 20 21 22 23 22 21 23 21 23 25 24 26 30 32 32 33 32 34 32 33 33 32
27 24 19 15 17 28 21 2 20 7 14 17 18 21 19 30 31 22 21 25 22 19 21 21 24 24 25 24 24 24 24 26 26 25 24 28 30 32 33 36 40 43 43 37
16 28 26 22 17 20 9 18 17 22 21 20 23 26 24 27 30 26 25 26 26 24 23 23 24 25 25 27 24 23 27 26 26 26 24 23 28 31 33 36 37 38 39 41
19 24 32 33 36 36 33 34 30 28 30 22 26 29 28 31 35 28 24 28 28 25 23 21 22 24 27 28 29 27 30 30 31 31 30 30 28 29 32 34 36 38 36 38
28 31 27 21 22 33 29 26 25 24 24 27 28 34 30 28 32 30 28 28 26 24 24 24 25 24 24 26 29 28 31 32 33 34 35 36 34 33 35 34 35 38 40 40
27 17 20 27 33 37 31 26 26 24 22 25 25 27 26 25 30 29 28 28 26 25 23 26 27 27 28 28 28 27 25 29 29 31 34 36 38 38 38 37 36 37 40 38
21 25 22 30 27 30 25 17 17 24 23 25 25 25 25 26 27 30 31 31 29 25 26 26 28 29 28 29 30 31 31 34 34 34 36 37 38 40 40 40 37 36 38 36
Wind_Direction
246 251 266 251 199 225 268 296 5 294 317 302 328 342 325 330 335 338 349 354 360 358 3 1 351 4 5 16 35 40 38 37 13 355 321 307 302 301 306 324 298 175 346 9
243 252 256 230 234 235 271 280 301 288 166 254 345 2 284 273 323 352 337 336 342 1 356 360 1 355 5 5 12 36 62 71 63 32 360 338 327 335 2 15 143 184 323 340
249 248 248 229 238 238 244 266 247 278 321 30 325 303 314 330 1 358 340 331 337 349 346 355 9 357 358 13 16 20 30 62 69 65 40 6 10 31 74 142 153 312 321 324
244 222 212 261 238 230 240 262 232 295 307 343 324 305 326 321 357 328 334 331 326 19 353 6 12 5 0 5 20 28 28 32 45 37 29 355 27 264 266 199 343 329 334 333
239 234 222 224 240 235 229 239 238 256 295 293 293 288 310 310 279 266 343 344 347 19 6 359 360 358 7 3 5 45 55 43 46 45 316 250 233 266 285 344 303 297 287 297
235 235 236 229 246 219 231 224 222 257 253 255 254 289 293 310 292 281 232 266 336 341 350 351 342 350 351 3 352 350 22 38 56 52 47 228 229 247 287 279 315 295 314 333
235 234 243 240 240 235 232 224 234 243 263 278 244 249 260 282 287 257 255 282 282 323 317 330 350 350 350 345 331 297 303 339 37 33 24 76 88 113 215 330 333 333 343 358
248 244 251 242 232 227 230 215 218 228 238 281 307 249 241 252 233 265 273 260 256 268 297 293 314 340 5 348 327 317 260 266 63 347 335 137 126 139 188 290 317 335 0 343
228 272 260 255 228 214 213 221 204 231 251 284 294 277 284 255 219 287 294 228 227 261 276 299 293 335 11 4 358 331 277 213 180 259 247 203 173 277 315 333 331 304 348 343
186 231 235 244 231 214 175 219 243 215 239 262 283 323 217 264 261 311 249 180 224 210 288 300 304 319 351 1 355 341 269 207 189 197 206 237 251 269 297 344 352 352 340 346
199 214 236 244 260 213 193 189 192 211 216 251 236 206 221 244 264 283 292 313 162 254 311 327 343 340 337 340 349 342 300 208 194 201 237 264 284 294 274 316 332 330 337 344
204 169 225 260 240 194 209 197 195 208 236 233 271 283 228 240 275 288 277 247 271 301 311 323 301 263 322 329 317 335 266 212 200 201 234 277 290 305 300 300 301 301 317 336
158 155 202 218 219 194 189 204 199 200 219 242 202 213 256 267 256 274 281 242 257 271 264 267 274 282 288 297 282 291 279 232 233 224 216 246 266 280 301 298 296 300 308 318
169 197 186 190 191 220 213 194 208 209 235 262 219 249 249 259 268 277 271 261 262 263 266 270 269 270 273 276 282 276 286 266 243 234 222 226 245 260 272 287 274 282 293 300
143 236 229 199 166 190 180 189 218 200 208 250 242 228 238 240 265 290 252 255 262 268 269 276 283 283 279 275 266 265 263 273 260 237 234 229 228 242 253 251 265 267 277 278
137 140 11 52 145 166 188 186 204 225 189 251 246 235 167 171 276 284 259 256 267 270 275 280 286 287 285 283 281 261 260 259 261 255 249 239 234 260 273 261 270 287 283 275
168 140 231 212 225 225 230 223 235 227 210 227 242 257 266 252 253 263 270 267 274 281 286 291 292 287 281 276 282 286 281 261 248 252 251 245 247 256 255 257 297 292 265 279
185 182 209 232 244 223 220 205 196 235 220 235 246 258 278 282 200 247 268 275 279 288 294 296 297 294 288 278 277 281 285 288 280 260 260 259 259 251 260 255 288 273 262 264
234 212 217 241 236 259 227 224 218 195 223 234 246 278 275 308 332 297 274 277 281 286 284 287 290 292 292 296 285 281 278 281 281 286 282 277 277 271 265 264 282 266 270 262
188 232 221 228 241 300 229 238 219 202 236 230 267 267 295 267 269 260 285 299 294 278 280 283 280 281 285 283 286 288 291 291 286 280 282 286 288 291 293 288 285 278 276 269
191 196 205 246 258 262 257 343 188 220 233 249 217 211 249 263 274 283 293 297 299 295 287 276 274 271 273 276 284 291 291 293 292 288 285 284 285 286 283 280 280 279 278 277
201 215 207 217 215 257 180 246 222 247 239 254 253 251 248 266 288 290 289 290 290 290 288 285 273 267 270 276 282 283 287 288 287 288 289 284 282 285 283 280 278 277 278 276
223 205 215 223 218 229 243 245 243 261 261 262 268 265 258 265 278 287 287 286 284 286 288 287 286 279 275 276 275 280 284 283 284 286 288 289 287 288 283 283 286 285 281 281
231 229 245 247 269 236 244 248 267 263 266 266 260 262 271 273 275 282 286 281 280 281 282 281 281 283 283 282 281 279 280 281 282 285 285 286 288 289 289 288 287 284 283 279
239 242 234 241 243 258 265 265 260 267 259 257 258 259 264 261 268 274 277 277 279 283 283 281 283 284 284 283 284 284 283 285 286 287 283 283 285 287 290 291 289 285 283 281
249 247 241 237 240 249 270 280 260 258 259 257 260 262 262 265 269 273 276 280 282 284 279 279 279 278 279 278 279 280 281 281 283 283 283 285 286 287 289 290 289 284 281 277